Tracking 20242 objects as of 24-Jan-2020
HD Live streaming from Space Station
objects crossing your sky now

EXPRESS 2

Track EXPRESS 2 now!
EXPRESS 2 is classified as:


NORAD ID: 24435
Int'l Code: 1996-058A
Perigee: 35,735.7 km
Apogee: 35,855.4 km
Inclination: 14.6 °
Period: 1,436.2 minutes
Semi major axis: 42166 km
RCS: 10 m2 (large)
Launch date: September 26, 1996
Source: Commonwealth of Independent States (former USSR) (CIS)
Launch site: TYURATAM MISSILE AND SPACE COMPLEX (TTMTR)
aabbcc
Your satellite tracking list
Your tracking list is empty




NASA's NSSDC Master Catalog

Two Line Element Set (TLE):
1 24435U 96058A   20023.42318441 -.00000344  00000-0  00000+0 0  9991
2 24435  14.6328  13.1376 0014189 323.5662  40.7232  1.00265418 85429
Source of the keplerian elements: AFSPC